{"data":{"norad_id":58607,"epoch":"2026-05-24T22:47:28.855392Z","epoch_age_seconds":89250,"freshness":"FRESH","line1":"1 58607U 23200U   26144.94963953  .00000700  00000+0  34968-4 0  9998","line2":"2 58607  43.0020  98.1829 0001209 260.1640  99.9075 15.27578218135278","mean_motion":15.27578218,"eccentricity":0.0001209,"inclination_deg":43.002,"raan_deg":98.1829,"arg_perigee_deg":260.164,"mean_anomaly_deg":99.9075,"bstar":3.4968e-5,"rev_number":13527,"period_min":94.266858680751,"perigee_km":482.22491394978,"apogee_km":483.88395003804,"semimajor_km":6861.1914319939,"source":"CELESTRAK","updated_at":"2026-05-25T13:38:18.703875Z"}}